Regional Weather Roundup
Issued by NWS

Home | Current Version | Previous Version | Graphics & Text | Print | Product List | Glossary On
Versions: 1 2 3 4 5 6 7 8 9 10 11 12 13 14 15 16 17 18 19 20 21 22 23 24 25 26 27 28 29 30 31 32 33 34 35 36 37 38 39 40 41 42 43 44 45 46 47 48 49 50
000
ASUS43 KFSD 241402
RWRSD

WEATHER ROUNDUP FOR SOUTH DAKOTA
NATIONAL WEATHER SERVICE SIOUX FALLS SD
800 AM CST WED DEC 24 2014

NOTE: "FAIR" INDICATES FEW OR NO CLOUDS BELOW 12,000 FEET WITH NO
SIGNIFICANT WEATHER AND/OR OBSTRUCTIONS TO VISIBILITY.


SDZ001>005-009-010-012>017-241500-
NORTHWEST AND NORTH CENTRAL SOUTH DAKOTA

CITY           SKY/WX    TMP DP  RH WIND       PRES   REMARKS
FAITH            N/A     13   9  84 S15       29.78F WCI  -3
MOBRIDGE       CLOUDY    19  15  84 S6        29.81F WCI  11
$$

SDZ012>016-024>037-041>051-057-063-072>074-241500-
SOUTHWEST AND SOUTH CENTRAL SOUTH DAKOTA

CITY           SKY/WX    TMP DP  RH WIND       PRES   REMARKS
RAPID CTY ARPT PTCLDY    13  10  88 CALM      29.78F
PIERRE         PTCLDY    13  11  92 SW5       29.84F WCI   5
CUSTER         CLEAR     23   7  50 W9        29.74F WCI  13
ELLSWORTH AFB  PTCLDY    11   6  81 W6        29.76F WCI   1
PHILIP         PTCLDY    14   9  80 CALM      29.83F
PINE RIDGE     PTCLDY    -4  -9  79 N3        29.83F
WINNER         FAIR      20  16  84 SW7       29.88F WCI  11
$$

SDZ004>011-016>023-039-040-241500-
NORTHEAST SOUTH DAKOTA

CITY           SKY/WX    TMP DP  RH WIND       PRES   REMARKS
ABERDEEN       CLOUDY    26  23  88 W5        29.88F WCI  20
WATERTOWN      CLOUDY    25  23  92 NW9       29.84F WCI  15
SISSETON         N/A     27  25  92 NW13      29.86S WCI  16
$$

SDZ017-020-022-023-036>040-048>070-241500-
SOUTHEAST SOUTH DAKOTA

CITY           SKY/WX    TMP DP  RH WIND       PRES   REMARKS
SIOUX FALLS    FRZ DRZL  28  27  96 NW12      29.87S WCI  18
HURON          CLOUDY    24  23  96 NW7       29.90F WCI  16
MITCHELL       CLOUDY    25  24  96 NW12      29.92S WCI  14
YANKTON        CLOUDY    27  23  86 NW15      29.93R WCI  15
$$

ABBREVIATIONS USED IN REMARKS
   TC - TEMPERATURE IN CELSIUS
  WCI - WIND CHILL INDEX
   HX - HEAT INDEX
  VSB - VISIBILITY



USA.gov is the U.S. government's official web portal to all federal, state and local government web resources and services.